Weather History for KBKD - May, 2013

Change the Weather History Date:

Tuesday, May 28, 2013

  Actual Average (KABI) Record (KABI)
Temperature  
Mean Temperature 78 °F 76 °F  
Max Temperature 84 °F 87 °F 109 °F (2011)
Min Temperature 73 °F 65 °F 49 °F (1976)
Degree Days  
Heating Degree Days 0 0  
Month to date heating degree days 13  
Since 1 July heating degree days 2555  
Cooling Degree Days 14 11  
Month to date cooling degree days 231  
Year to date cooling degree days 364  
Growing Degree Days 28 (Base 50)    
Moisture  
Dew Point 65 °F    
Average Humidity 64    
Maximum Humidity 75    
Minimum Humidity 53    
Precipitation  
Precipitation 0.01 in 0.13 in 1.72 in (1987)
Month to date precipitation 2.80  
Year to date precipitation 8.56  
Sea Level Pressure  
Sea Level Pressure 29.78 in    
Wind  
Wind Speed 15 mph (South)    
Max Wind Speed 29 mph    
Max Gust Speed 43 mph    
Visibility 10 miles    
Events      
T = Trace of Precipitation, MM = Missing Value Source: NWS Daily Summary

Daily Weather History Graph

Daily Weather History Graph

Search for Another Location

Airport or City:

Trip Planner

Search our weather history database for the weather conditions in past years. The results will help you decide how hot, cold, wet, or windy it might be!

Date:

Astronomy

May. 28, 2013 Rise Set
Actual Time 6:29 AM CDT 8:36 PM CDT
Civil Twilight 6:01 AM CDT 9:04 PM CDT
Nautical Twilight 5:27 AM CDT 9:38 PM CDT
Astronomical Twilight 4:51 AM CDT 10:15 PM CDT
Moon No Moon Rise 10:14 AM CDT
Length of Visible Light 15h 02m
Length of Day
14h 06m
Waning Gibbous, 82% of the Moon is Illuminated
May 28
Waning Gibbous
May 31
Last Quarter
Jun 8
New
Jun 16
First Quarter
Jun 23
Full

Hourly Weather History & Observations

Time (CDT) Temp. Heat Index Dew Point Humidity Pressure Visibility Wind Dir Wind Speed Gust Speed Precip Events Conditions
12:15 AM 79.7 °F - 67.1 °F 65% 29.81 in 10.0 mi South 13.8 mph 23.0 mph N/A   Clear
12:35 AM 78.8 °F - 67.3 °F 68% 29.81 in 10.0 mi SSE 11.5 mph 17.3 mph N/A   Clear
12:55 AM 78.4 °F - 68.0 °F 70% 29.81 in 10.0 mi SSE 9.2 mph 17.3 mph N/A   Clear
1:15 AM 78.1 °F - 68.0 °F 71% 29.80 in 10.0 mi SSE 15.0 mph 21.9 mph N/A   Clear
1:35 AM 78.1 °F - 68.2 °F 71% 29.79 in 10.0 mi South 15.0 mph 21.9 mph N/A   Clear
1:55 AM 77.9 °F - 68.4 °F 72% 29.79 in 10.0 mi South 12.7 mph 20.7 mph N/A   Mostly Cloudy
2:15 AM 77.9 °F - 68.2 °F 72% 29.79 in 10.0 mi South 16.1 mph 23.0 mph N/A   Mostly Cloudy
2:35 AM 77.4 °F - 68.0 °F 73% 29.78 in 10.0 mi South 13.8 mph 24.2 mph N/A   Mostly Cloudy
2:55 AM 77.2 °F - 68.0 °F 73% 29.77 in 10.0 mi South 16.1 mph 25.3 mph N/A   Scattered Clouds
3:15 AM 77.0 °F - 68.0 °F 74% 29.76 in 10.0 mi South 17.3 mph 25.3 mph N/A   Scattered Clouds
3:35 AM 77.2 °F - 68.0 °F 73% 29.76 in 10.0 mi South 17.3 mph 28.8 mph N/A   Mostly Cloudy
3:55 AM 77.4 °F - 67.5 °F 71% 29.76 in 10.0 mi South 19.6 mph 29.9 mph N/A   Overcast
4:15 AM 77.0 °F - 67.3 °F 72% 29.75 in 10.0 mi South 21.9 mph 33.4 mph N/A   Mostly Cloudy
4:35 AM 76.5 °F - 67.1 °F 73% 29.77 in 10.0 mi SSW 18.4 mph 25.3 mph N/A   Scattered Clouds
4:55 AM 77.0 °F - 66.9 °F 71% 29.78 in 10.0 mi SSW 23.0 mph 31.1 mph N/A   Mostly Cloudy
5:15 AM 76.5 °F - 66.4 °F 71% 29.77 in 10.0 mi SSW 24.2 mph 31.1 mph N/A   Overcast
5:35 AM 76.1 °F - 65.8 °F 70% 29.77 in 10.0 mi South 23.0 mph 33.4 mph N/A   Scattered Clouds
5:55 AM 75.4 °F - 65.5 °F 71% 29.78 in 10.0 mi South 19.6 mph 26.5 mph N/A   Clear
6:15 AM 75.0 °F - 65.5 °F 72% 29.79 in 10.0 mi South 15.0 mph 25.3 mph N/A   Clear
6:35 AM 74.5 °F - 65.3 °F 73% 29.80 in 10.0 mi South 13.8 mph 21.9 mph N/A   Clear
6:55 AM 73.9 °F - 65.3 °F 74% 29.81 in 10.0 mi South 11.5 mph 16.1 mph N/A   Clear
7:15 AM 73.8 °F - 64.9 °F 74% 29.81 in 10.0 mi South 8.1 mph - N/A   Clear
7:35 AM 73.4 °F - 64.9 °F 75% 29.82 in 10.0 mi South 16.1 mph 19.6 mph N/A   Clear
7:55 AM 73.0 °F - 64.2 °F 74% 29.83 in 10.0 mi South 13.8 mph 19.6 mph N/A   Clear
8:15 AM 73.8 °F - 63.7 °F 71% 29.82 in 10.0 mi South 15.0 mph 23.0 mph N/A   Clear
8:35 AM 74.7 °F - 63.5 °F 68% 29.82 in 10.0 mi South 15.0 mph 23.0 mph N/A   Clear
8:55 AM 75.4 °F - 63.0 °F 65% 29.83 in 10.0 mi South 17.3 mph 26.5 mph N/A   Clear
9:15 AM 75.2 °F - 62.6 °F 65% 29.84 in 10.0 mi South 18.4 mph 27.6 mph N/A   Scattered Clouds
9:35 AM 75.2 °F - 62.8 °F 65% 29.84 in 10.0 mi South 21.9 mph 28.8 mph N/A   Scattered Clouds
9:55 AM 75.6 °F - 63.0 °F 65% 29.85 in 10.0 mi South 19.6 mph 28.8 mph N/A   Scattered Clouds
10:15 AM 75.4 °F - 62.8 °F 65% 29.85 in 10.0 mi South 20.7 mph 31.1 mph N/A   Mostly Cloudy
10:35 AM 75.6 °F - 63.0 °F 65% 29.85 in 10.0 mi South 18.4 mph 28.8 mph N/A   Overcast
10:55 AM 75.7 °F - 63.3 °F 65% 29.86 in 10.0 mi South 18.4 mph 24.2 mph N/A   Overcast
11:15 AM 75.7 °F - 63.1 °F 65% 29.87 in 10.0 mi SSW 17.3 mph 25.3 mph N/A   Overcast
11:35 AM 75.9 °F - 63.3 °F 65% 29.87 in 10.0 mi SSW 10.4 mph 20.7 mph N/A   Overcast
11:55 AM 76.1 °F - 63.5 °F 65% 29.85 in 10.0 mi South 16.1 mph 20.7 mph N/A   Overcast
12:15 PM 76.3 °F - 63.5 °F 64% 29.84 in 10.0 mi South 13.8 mph 23.0 mph N/A   Overcast
12:35 PM 76.5 °F - 63.7 °F 64% 29.84 in 10.0 mi South 15.0 mph 24.2 mph N/A   Overcast
12:55 PM 76.8 °F - 63.7 °F 64% 29.84 in 10.0 mi South 11.5 mph 20.7 mph N/A   Overcast
1:15 PM 77.4 °F - 63.9 °F 63% 29.84 in 10.0 mi South 15.0 mph 24.2 mph N/A   Overcast
1:35 PM 77.9 °F - 64.2 °F 63% 29.86 in 10.0 mi South 16.1 mph 21.9 mph N/A   Overcast
1:55 PM 78.4 °F - 63.9 °F 61% 29.87 in 10.0 mi SSW 15.0 mph 23.0 mph 0.01 in   Overcast
2:15 PM 78.8 °F - 64.2 °F 61% 29.85 in 10.0 mi SSW 13.8 mph 19.6 mph N/A   Overcast
2:35 PM 77.4 °F - 64.2 °F 64% 29.83 in 10.0 mi South 13.8 mph 18.4 mph N/A   Mostly Cloudy
2:55 PM 77.2 °F - 64.0 °F 64% 29.80 in 10.0 mi SSE 13.8 mph 19.6 mph N/A   Scattered Clouds
3:15 PM 77.9 °F - 64.6 °F 63% 29.78 in 10.0 mi SSE 16.1 mph 21.9 mph N/A   Scattered Clouds
3:35 PM 79.5 °F - 65.3 °F 62% 29.79 in 10.0 mi SSE 10.4 mph 16.1 mph N/A   Scattered Clouds
3:55 PM 80.1 °F 81.9 °F 65.1 °F 60% 29.76 in 10.0 mi SE 6.9 mph - N/A   Clear
4:15 PM 80.1 °F 82.0 °F 65.3 °F 61% 29.78 in 10.0 mi SSE 6.9 mph - N/A   Clear
4:35 PM 79.7 °F - 65.1 °F 61% 29.79 in 10.0 mi South 4.6 mph - N/A   Scattered Clouds
4:55 PM 80.8 °F 82.6 °F 65.5 °F 59% 29.79 in 10.0 mi Calm Calm - N/A   Scattered Clouds
5:15 PM 82.6 °F 84.7 °F 65.8 °F 57% 29.77 in 10.0 mi SE 5.8 mph - N/A   Clear
5:35 PM 83.3 °F 85.3 °F 65.5 °F 55% 29.76 in 10.0 mi SE 8.1 mph - N/A   Clear
5:55 PM 84.0 °F 85.8 °F 65.3 °F 53% 29.76 in 10.0 mi SE 5.8 mph - N/A   Clear
6:15 PM 83.5 °F 85.1 °F 64.9 °F 53% 29.77 in 10.0 mi SSE 6.9 mph - N/A   Clear
6:35 PM 82.8 °F 84.5 °F 64.9 °F 55% 29.78 in 10.0 mi SSE 5.8 mph - N/A   Clear
6:55 PM 82.4 °F 84.2 °F 65.3 °F 56% 29.78 in 10.0 mi SSE 8.1 mph - N/A   Clear
7:15 PM 82.2 °F 84.0 °F 65.3 °F 56% 29.77 in 10.0 mi SSE 13.8 mph - N/A   Clear
7:35 PM 81.9 °F 83.7 °F 65.5 °F 57% 29.71 in 10.0 mi SSE 26.5 mph 32.2 mph N/A   Scattered Clouds
7:55 PM 81.9 °F 83.7 °F 65.5 °F 57% 29.71 in 10.0 mi SE 19.6 mph 31.1 mph N/A   Clear
8:15 PM 82.0 °F 83.9 °F 65.7 °F 57% 29.66 in 10.0 mi ESE 13.8 mph 26.5 mph N/A   Clear
8:35 PM 82.8 °F 84.7 °F 65.7 °F 56% 29.63 in 10.0 mi SSE 27.6 mph 42.6 mph N/A   Clear
8:55 PM 82.8 °F 84.5 °F 65.3 °F 55% 29.66 in 10.0 mi SSE 27.6 mph 41.4 mph N/A   Clear
9:15 PM 82.6 °F 84.3 °F 65.1 °F 55% 29.64 in 10.0 mi SE 28.8 mph 39.1 mph N/A   Scattered Clouds
9:35 PM 82.4 °F 84.2 °F 65.1 °F 56% 29.66 in 10.0 mi SSE 26.5 mph 35.7 mph N/A   Clear
9:55 PM 82.4 °F 83.9 °F 64.4 °F 54% 29.65 in 10.0 mi SSE 26.5 mph 38.0 mph N/A   Clear
10:15 PM 82.2 °F 83.8 °F 64.4 °F 55% 29.66 in 10.0 mi SSE 27.6 mph 36.8 mph N/A   Clear
10:35 PM 81.7 °F 83.3 °F 64.6 °F 56% 29.67 in 10.0 mi SSE 21.9 mph 34.5 mph N/A   Clear
10:55 PM 81.5 °F 83.3 °F 64.8 °F 57% 29.69 in 10.0 mi SSE 25.3 mph 36.8 mph N/A   Clear
11:15 PM 81.0 °F 82.7 °F 65.1 °F 58% 29.72 in 10.0 mi South 24.2 mph 34.5 mph N/A   Clear
11:35 PM 80.2 °F 82.1 °F 65.3 °F 60% 29.75 in 10.0 mi South 21.9 mph 31.1 mph N/A   Clear
11:55 PM 79.9 °F - 65.5 °F 61% 29.75 in 10.0 mi South 21.9 mph 32.2 mph N/A   Clear